Precipitable_Water
0.46 0.37 0.28 0.35 0.45 0.46 0.44 0.42 0.39 0.43 0.52 0.48 0.45 0.48 0.54 0.63 0.66 0.59 0.64 0.72 0.71 0.70 0.77 0.80 0.78 0.77 0.74 0.72 0.72 0.72 0.68 0.71 0.72 0.70 0.65 0.61 0.54 0.49 0.44 0.44 0.43 0.40 0.39 0.39
0.37 0.27 0.34 0.39 0.43 0.46 0.46 0.42 0.37 0.46 0.51 0.50 0.49 0.49 0.60 0.63 0.67 0.61 0.61 0.66 0.72 0.71 0.71 0.75 0.78 0.76 0.72 0.70 0.70 0.71 0.69 0.70 0.70 0.69 0.67 0.64 0.56 0.50 0.44 0.44 0.43 0.41 0.40 0.40
0.25 0.29 0.38 0.37 0.35 0.37 0.38 0.37 0.42 0.43 0.47 0.50 0.48 0.45 0.49 0.59 0.70 0.74 0.67 0.70 0.73 0.75 0.69 0.69 0.71 0.73 0.72 0.70 0.70 0.70 0.69 0.69 0.69 0.70 0.69 0.65 0.60 0.52 0.45 0.43 0.41 0.41 0.42 0.42
0.30 0.38 0.32 0.32 0.31 0.38 0.31 0.42 0.43 0.42 0.40 0.30 0.46 0.27 0.40 0.44 0.56 0.63 0.69 0.66 0.63 0.70 0.78 0.72 0.67 0.69 0.70 0.70 0.72 0.72 0.74 0.70 0.69 0.71 0.66 0.60 0.53 0.47 0.44 0.41 0.41 0.42 0.43 0.44
0.26 0.28 0.27 0.27 0.27 0.37 0.31 0.43 0.43 0.40 0.39 0.40 0.38 0.34 0.26 0.44 0.47 0.51 0.57 0.65 0.64 0.66 0.74 0.77 0.67 0.65 0.71 0.71 0.68 0.70 0.72 0.67 0.67 0.68 0.66 0.62 0.56 0.53 0.48 0.43 0.41 0.42 0.44 0.46
0.30 0.37 0.32 0.29 0.34 0.37 0.39 0.39 0.40 0.40 0.37 0.27 0.33 0.34 0.22 0.28 0.32 0.41 0.52 0.60 0.68 0.71 0.70 0.74 0.74 0.63 0.68 0.74 0.74 0.73 0.71 0.67 0.66 0.66 0.67 0.64 0.59 0.54 0.47 0.41 0.40 0.42 0.44 0.46
0.31 0.31 0.37 0.38 0.29 0.38 0.39 0.32 0.22 0.22 0.25 0.22 0.32 0.34 0.26 0.28 0.31 0.36 0.45 0.57 0.66 0.65 0.71 0.76 0.75 0.68 0.67 0.71 0.74 0.73 0.73 0.67 0.65 0.64 0.67 0.66 0.64 0.57 0.48 0.42 0.42 0.43 0.44 0.45
0.22 0.19 0.30 0.35 0.30 0.28 0.31 0.31 0.23 0.20 0.21 0.24 0.35 0.27 0.19 0.30 0.37 0.36 0.47 0.57 0.69 0.65 0.69 0.69 0.70 0.73 0.76 0.73 0.72 0.73 0.74 0.67 0.66 0.64 0.65 0.70 0.67 0.58 0.51 0.46 0.45 0.46 0.47 0.47
0.23 0.21 0.30 0.31 0.35 0.34 0.32 0.29 0.36 0.32 0.32 0.24 0.26 0.27 0.28 0.32 0.30 0.32 0.35 0.49 0.61 0.65 0.64 0.68 0.69 0.71 0.80 0.81 0.76 0.75 0.76 0.69 0.66 0.65 0.67 0.68 0.67 0.62 0.56 0.51 0.49 0.50 0.51 0.48
0.29 0.21 0.29 0.31 0.40 0.41 0.35 0.43 0.31 0.33 0.22 0.20 0.22 0.22 0.17 0.22 0.25 0.29 0.30 0.35 0.51 0.63 0.67 0.70 0.75 0.74 0.81 0.83 0.79 0.85 0.76 0.66 0.66 0.68 0.68 0.69 0.68 0.67 0.60 0.52 0.50 0.50 0.48 0.46
0.35 0.29 0.26 0.31 0.31 0.29 0.36 0.35 0.39 0.38 0.33 0.23 0.18 0.17 0.27 0.28 0.30 0.27 0.30 0.35 0.42 0.51 0.64 0.74 0.75 0.82 0.88 0.81 0.79 0.78 0.70 0.66 0.67 0.69 0.69 0.68 0.67 0.64 0.57 0.52 0.50 0.48 0.46 0.45
0.40 0.33 0.23 0.26 0.35 0.39 0.38 0.36 0.40 0.30 0.27 0.31 0.27 0.20 0.34 0.34 0.34 0.31 0.35 0.38 0.46 0.49 0.60 0.74 0.82 0.87 0.89 0.83 0.82 0.75 0.70 0.68 0.67 0.67 0.67 0.67 0.66 0.59 0.53 0.51 0.48 0.46 0.45 0.43
0.37 0.31 0.21 0.23 0.29 0.34 0.34 0.39 0.40 0.40 0.40 0.30 0.27 0.24 0.39 0.39 0.38 0.40 0.41 0.44 0.48 0.58 0.65 0.73 0.82 0.85 0.81 0.81 0.77 0.71 0.69 0.66 0.65 0.67 0.66 0.62 0.59 0.55 0.50 0.48 0.46 0.45 0.43 0.41
0.40 0.32 0.28 0.19 0.21 0.27 0.27 0.31 0.37 0.37 0.29 0.30 0.27 0.28 0.37 0.39 0.41 0.45 0.47 0.49 0.53 0.57 0.62 0.65 0.67 0.66 0.72 0.76 0.71 0.70 0.70 0.69 0.66 0.63 0.59 0.56 0.55 0.52 0.48 0.46 0.45 0.43 0.41 0.39
0.32 0.24 0.30 0.32 0.31 0.28 0.28 0.28 0.33 0.34 0.33 0.29 0.29 0.31 0.34 0.39 0.42 0.46 0.53 0.55 0.56 0.67 0.66 0.66 0.62 0.62 0.65 0.66 0.70 0.72 0.70 0.66 0.63 0.57 0.56 0.55 0.53 0.49 0.47 0.46 0.44 0.42 0.40 0.40
0.29 0.22 0.26 0.25 0.31 0.30 0.27 0.30 0.31 0.33 0.35 0.33 0.33 0.31 0.39 0.42 0.46 0.46 0.48 0.50 0.55 0.66 0.72 0.69 0.65 0.66 0.66 0.66 0.66 0.68 0.64 0.62 0.59 0.55 0.53 0.52 0.49 0.47 0.46 0.44 0.42 0.41 0.40 0.40
0.22 0.23 0.23 0.20 0.31 0.30 0.24 0.25 0.29 0.30 0.34 0.33 0.28 0.30 0.39 0.39 0.42 0.45 0.50 0.53 0.55 0.60 0.65 0.62 0.67 0.72 0.69 0.69 0.72 0.70 0.67 0.61 0.57 0.54 0.52 0.51 0.49 0.47 0.44 0.42 0.41 0.40 0.39 0.40
0.18 0.21 0.23 0.20 0.25 0.17 0.23 0.32 0.31 0.27 0.28 0.33 0.32 0.34 0.36 0.38 0.44 0.49 0.54 0.54 0.56 0.58 0.60 0.62 0.63 0.65 0.69 0.71 0.70 0.68 0.65 0.60 0.55 0.52 0.51 0.50 0.48 0.45 0.43 0.41 0.40 0.39 0.39 0.38
0.18 0.19 0.19 0.18 0.20 0.27 0.26 0.28 0.29 0.27 0.23 0.29 0.30 0.32 0.34 0.39 0.42 0.44 0.54 0.59 0.59 0.58 0.60 0.62 0.63 0.66 0.67 0.68 0.67 0.64 0.60 0.56 0.54 0.51 0.50 0.48 0.45 0.43 0.41 0.40 0.39 0.39 0.38 0.37
0.20 0.23 0.20 0.19 0.18 0.16 0.25 0.30 0.34 0.35 0.22 0.30 0.31 0.30 0.31 0.36 0.29 0.35 0.52 0.59 0.62 0.60 0.61 0.62 0.65 0.66 0.68 0.66 0.65 0.61 0.57 0.54 0.52 0.50 0.48 0.46 0.44 0.42 0.40 0.40 0.38 0.38 0.37 0.36
0.15 0.18 0.17 0.18 0.17 0.23 0.33 0.34 0.36 0.24 0.24 0.32 0.32 0.32 0.33 0.29 0.34 0.43 0.52 0.54 0.58 0.60 0.60 0.62 0.65 0.64 0.64 0.64 0.63 0.58 0.56 0.51 0.50 0.48 0.46 0.44 0.43 0.41 0.40 0.38 0.37 0.36 0.35 0.34
0.16 0.15 0.18 0.19 0.17 0.15 0.30 0.33 0.26 0.32 0.35 0.35 0.36 0.35 0.36 0.37 0.40 0.42 0.46 0.48 0.52 0.55 0.56 0.60 0.60 0.60 0.60 0.61 0.60 0.54 0.50 0.49 0.47 0.44 0.43 0.42 0.41 0.39 0.37 0.36 0.35 0.35 0.34 0.32
0.17 0.22 0.23 0.21 0.19 0.28 0.31 0.33 0.37 0.38 0.36 0.37 0.38 0.39 0.38 0.38 0.38 0.40 0.43 0.47 0.52 0.55 0.57 0.59 0.58 0.56 0.56 0.55 0.54 0.50 0.47 0.45 0.43 0.42 0.40 0.39 0.37 0.36 0.36 0.35 0.34 0.33 0.32 0.30
0.25 0.31 0.27 0.30 0.29 0.27 0.31 0.41 0.38 0.38 0.38 0.40 0.42 0.41 0.39 0.38 0.40 0.41 0.43 0.46 0.50 0.54 0.55 0.56 0.55 0.52 0.48 0.46 0.45 0.44 0.44 0.43 0.40 0.38 0.36 0.35 0.35 0.35 0.35 0.35 0.34 0.31 0.30 0.28
0.24 0.25 0.26 0.28 0.31 0.30 0.33 0.37 0.36 0.35 0.36 0.39 0.40 0.41 0.40 0.41 0.41 0.45 0.46 0.48 0.50 0.51 0.51 0.50 0.48 0.46 0.44 0.43 0.42 0.41 0.40 0.39 0.36 0.35 0.35 0.35 0.35 0.34 0.33 0.33 0.33 0.31 0.30 0.29
0.25 0.23 0.23 0.25 0.30 0.29 0.30 0.33 0.35 0.35 0.33 0.37 0.38 0.39 0.40 0.43 0.44 0.47 0.49 0.50 0.49 0.48 0.47 0.45 0.43 0.42 0.41 0.40 0.39 0.39 0.38 0.36 0.35 0.35 0.34 0.34 0.33 0.32 0.32 0.31 0.29 0.30 0.29 0.28
Wind_Speed
28 28 31 26 27 26 24 24 25 22 24 28 33 34 36 32 39 51 48 46 40 40 39 38 38 37 36 34 33 32 30 29 28 26 24 21 19 18 16 15 14 13 12 10
28 36 30 26 27 27 26 21 24 21 21 28 28 34 34 38 38 46 51 47 46 39 38 39 39 39 38 35 34 33 32 30 29 28 26 23 21 20 18 17 15 14 13 12
35 27 29 28 27 27 30 28 22 22 20 25 24 30 32 36 41 38 48 50 48 44 40 40 41 41 39 38 36 34 33 32 31 30 27 25 22 21 20 19 17 16 15 13
34 37 24 29 31 28 30 26 28 28 25 25 26 25 29 35 40 45 45 48 51 53 49 43 42 42 41 39 38 37 35 33 32 31 29 28 25 23 22 20 19 17 16 15
31 29 33 33 29 28 27 22 25 28 28 25 25 25 27 28 38 44 48 49 49 52 51 46 44 43 42 41 40 38 37 35 34 32 31 29 26 24 23 21 20 19 18 17
31 27 28 28 28 28 22 25 21 25 26 29 32 28 27 28 37 42 43 46 48 48 50 47 42 42 43 43 41 39 38 36 35 33 32 30 28 26 24 23 22 20 19 18
23 28 25 25 25 25 25 21 18 21 23 26 30 27 32 26 34 38 39 42 44 45 49 46 43 44 43 42 41 40 39 37 36 34 32 31 29 28 26 25 23 22 21 20
25 23 29 27 32 24 29 27 20 16 18 20 21 26 31 33 34 29 37 38 41 42 50 46 42 41 43 42 41 41 39 37 36 35 33 31 30 28 27 26 24 23 22 21
19 23 22 23 25 30 23 29 27 20 15 15 21 25 28 27 28 34 33 36 41 44 49 48 43 41 39 39 38 39 40 37 36 35 34 32 30 28 27 26 25 24 23 22
22 20 20 17 23 27 25 22 21 24 18 16 19 20 25 23 29 32 34 38 40 42 47 49 47 44 40 39 37 37 38 38 36 35 34 32 30 29 27 26 25 24 23 22
30 23 18 19 24 27 24 23 21 19 21 18 16 20 19 24 24 27 32 36 38 40 43 46 47 44 42 39 37 36 37 36 36 35 33 32 30 28 27 26 25 24 23 23
24 21 25 27 19 22 29 26 23 21 19 20 17 20 13 12 16 24 24 31 32 36 38 42 45 44 41 40 38 38 37 37 36 34 33 31 30 28 27 26 25 24 24 23
13 20 21 19 23 24 25 27 28 22 17 20 16 18 15 9 7 10 19 25 29 32 35 38 40 42 41 39 39 38 36 37 36 34 32 30 29 27 26 25 24 24 24 24
17 19 20 23 18 22 23 29 27 26 22 19 27 23 24 13 10 10 13 22 27 30 33 35 36 37 39 40 38 37 36 36 35 33 31 30 28 27 26 25 24 24 24 25
15 19 18 24 28 21 24 26 30 29 29 25 25 27 27 18 16 16 16 19 25 31 32 32 33 35 37 38 37 36 36 35 34 32 30 29 27 26 25 24 23 24 24 26
18 20 20 20 25 30 26 25 27 30 30 30 29 29 17 17 15 15 18 20 22 27 32 32 33 35 36 37 36 35 34 34 33 31 29 28 26 25 24 23 23 24 25 27
24 20 18 18 15 23 29 36 27 27 27 27 30 30 22 23 21 18 18 18 21 24 28 27 32 34 36 36 36 34 33 33 32 30 29 27 26 24 23 23 24 25 26 28
29 25 21 20 15 22 23 25 32 33 29 28 28 21 20 24 22 22 22 20 20 20 25 27 29 32 33 34 33 33 33 32 31 28 27 25 24 23 23 23 24 26 27 29
34 28 21 19 18 18 18 21 23 26 34 30 29 27 22 19 19 21 25 25 23 20 22 26 28 30 31 32 32 31 31 30 28 27 25 24 23 23 23 24 25 27 28 30
30 32 27 23 19 18 18 17 15 16 24 22 27 28 26 25 23 23 23 25 23 22 22 24 27 29 30 30 31 30 29 27 26 25 24 23 23 22 23 24 25 27 29 31
23 25 33 29 25 19 18 16 18 17 14 11 19 22 23 26 24 22 23 23 23 22 23 24 26 28 29 30 29 28 27 25 24 23 22 21 21 22 23 24 26 28 30 32
23 25 27 28 28 28 18 15 20 17 16 14 15 16 20 20 22 24 22 23 23 24 25 25 25 26 27 28 27 26 24 23 22 21 21 20 21 22 24 25 27 29 31 33
17 26 22 29 28 20 18 17 19 19 18 15 13 15 18 20 21 24 23 23 25 25 25 25 25 25 25 26 26 24 23 22 21 19 19 20 21 22 23 25 28 30 32 33
15 19 26 24 23 21 18 14 12 12 14 14 14 14 17 20 22 23 23 24 25 25 26 26 25 24 24 24 23 22 21 20 19 18 19 20 21 22 24 27 29 30 32 33
16 19 23 25 22 21 17 15 13 10 9 11 12 14 16 21 21 24 25 25 25 25 24 24 23 23 22 22 21 20 19 18 18 18 19 20 21 23 25 27 29 30 32 33
9 17 22 23 22 19 18 16 13 11 11 11 13 15 15 20 23 25 25 26 25 25 24 23 22 22 21 20 19 18 17 17 17 18 19 20 22 24 26 27 29 30 31 32
Wind_Direction
247 247 244 245 243 253 257 247 248 248 235 227 233 233 232 225 225 222 221 219 215 214 214 214 214 213 212 212 211 211 210 210 209 208 209 212 212 213 214 214 215 218 223 232
246 245 245 245 248 246 245 248 251 249 241 232 235 237 232 229 228 223 220 220 219 216 213 213 214 214 213 213 212 211 211 210 210 211 214 215 215 216 217 218 221 223 229 238
240 251 239 239 242 242 245 245 246 242 248 239 237 242 234 229 227 224 220 221 219 218 216 214 214 215 214 214 213 212 211 211 212 213 214 215 217 218 221 223 227 230 234 242
243 238 240 236 240 237 245 244 244 245 246 240 227 243 232 227 227 225 223 223 221 219 219 218 215 215 215 215 215 214 214 213 214 214 215 216 220 222 225 225 229 233 238 246
240 235 235 240 239 235 246 241 239 242 240 240 236 238 237 224 224 224 223 224 221 218 217 220 217 215 214 214 215 215 215 215 215 215 217 219 221 225 225 228 230 235 241 249
240 238 234 236 237 234 241 242 250 245 238 237 230 229 236 225 223 224 224 222 221 222 217 216 217 215 214 215 215 215 215 215 215 216 218 220 221 224 225 229 232 237 244 251
237 235 235 233 234 231 229 231 241 235 229 234 223 226 236 229 227 224 223 222 220 219 213 213 214 213 213 214 215 215 215 215 215 216 218 221 223 225 227 229 233 238 245 253
234 240 231 233 231 229 225 224 228 240 229 229 219 228 233 235 235 230 225 222 218 215 211 210 211 211 213 214 215 215 214 214 215 216 218 222 224 227 229 232 235 240 247 254
233 242 244 234 226 217 224 225 224 240 246 232 229 240 245 234 233 226 223 220 217 214 209 210 214 210 211 211 212 215 214 215 215 217 218 221 224 227 229 233 237 242 248 256
239 245 234 232 220 220 222 218 221 228 230 235 239 238 235 226 229 225 221 220 217 215 213 215 214 212 212 212 213 214 214 214 214 216 219 221 224 227 230 232 237 242 249 257
233 237 236 222 221 216 216 221 226 225 228 235 242 242 235 235 229 223 221 218 216 213 212 213 213 212 211 212 212 211 212 212 214 216 217 219 223 226 229 232 237 244 251 259
230 235 232 231 228 227 221 221 222 226 230 232 237 241 231 232 237 223 223 212 212 209 208 207 207 208 210 213 213 213 212 212 213 214 216 219 222 225 228 233 239 245 254 262
240 234 231 230 229 226 222 222 221 226 233 227 230 231 218 220 211 218 214 205 203 202 202 200 201 206 211 213 212 211 211 210 211 213 216 218 220 224 229 234 241 249 257 265
238 234 235 230 236 220 224 223 222 223 229 227 228 233 232 230 236 218 205 198 196 196 196 196 200 205 208 207 206 207 208 208 209 211 214 217 221 225 229 236 244 252 260 269
244 240 243 242 240 233 227 222 220 223 228 226 237 231 233 234 234 220 199 191 190 195 194 198 199 201 201 201 203 204 204 206 207 209 213 217 221 225 231 239 248 256 265 272
239 241 253 247 238 234 231 226 222 225 230 235 236 238 232 234 222 211 201 200 202 198 200 199 200 201 200 198 199 199 202 204 205 208 212 216 221 227 235 243 252 261 269 276
238 235 242 242 250 228 233 225 224 226 229 224 227 231 230 231 225 214 209 203 201 198 198 197 199 199 198 197 197 199 199 201 204 207 212 217 223 230 239 248 257 265 272 279
229 232 235 241 252 226 233 225 228 230 232 226 230 234 230 232 225 222 214 203 195 194 196 195 193 193 193 193 194 196 198 200 203 207 212 219 226 234 244 253 261 269 276 282
222 223 230 231 233 244 238 225 220 223 232 228 227 232 226 224 224 224 215 207 201 195 190 192 191 189 189 191 192 194 196 198 203 209 215 222 231 240 250 258 266 273 280 286
216 218 220 219 227 229 232 219 217 218 233 224 226 231 225 221 224 221 208 202 200 199 193 188 187 186 188 191 191 191 195 199 205 211 218 227 237 246 255 263 270 278 284 289
210 215 218 219 224 226 230 226 222 210 220 226 225 225 215 220 224 210 204 201 200 195 189 185 184 186 188 188 189 193 197 203 208 215 224 234 243 252 261 269 276 282 287 291
215 212 212 217 220 228 227 226 216 228 238 238 235 222 213 210 205 200 197 196 193 190 188 186 184 185 186 188 190 195 200 206 212 221 230 241 251 260 267 274 280 285 290 294
226 214 216 212 217 219 224 224 231 235 237 237 233 219 201 193 193 192 192 189 188 185 184 184 182 183 186 191 194 198 204 210 218 229 239 249 258 266 273 278 284 289 293 296
225 218 218 215 217 218 217 214 224 231 229 225 213 199 194 185 184 182 182 179 179 182 181 180 181 185 190 194 198 203 208 217 227 237 247 256 263 271 278 285 289 292 295 298
242 230 214 213 212 208 206 215 218 212 204 193 191 188 181 178 177 177 176 177 177 176 179 182 185 188 192 195 201 208 217 226 235 245 254 261 270 278 284 288 292 295 296 299
236 216 205 206 208 203 208 208 201 185 181 176 172 173 172 172 169 170 171 174 176 178 179 182 185 189 193 198 205 214 225 234 243 253 261 269 277 283 287 290 293 297 299 301